Back to catalog

FENGYUN 1C DEB

AlivePO
NORAD 31329·DEBRIS·🇨🇳 China

Launched May 10, 1999 from Taiyuan Satellite Launch Center

Loading…

Next Passes (next 24 hours)

TLE

AgingSource: Space-Track

Epoch: Sep 7, 2026, 07:21 UTC

1 31329U 99025BQH 26250.30659293  .00003721  00000-0  59996-3 0  9999
2 31329  98.9068 265.6282 0050237 334.8214  25.0541 14.71322750 65609

Track FENGYUN 1C DEB in real time with AllMySat

Download on the App Store